User: anonymous   Login
Location: Unspecified
(0.0000°N, 0.0000°E)
Time: 12:53:38
(UTC+00:00)
Language:

USA 37 - Orbit

View from above orbital plane
View from above orbital plane
View from above satellite
View from above satellite

Ground track
Ground track

The orbit is defined by the following mean orbital elements,

1 19976U 89035A   22235.84347697 0.00000000  00000-0  00000-0 0    02
2 19976   7.7980   6.4532 0944087 317.3107  35.7262  1.00270000    04
Epoch (UTC): 23 August 2022 20:14:36
Eccentricity: 0.0944087
inclination: 7.7980°
perigee height: 31806 km
apogee height: 39767 km
right ascension of ascending node: 6.4532°
argument of perigee: 317.3107°
revolutions per day: 1.00270000
mean anomaly at epoch: 35.7262°

The dashed part of the orbit path shows where the satellite is in the earth's shadow,  

DLR